Simultaneous Nadir Overpasses (SNOs) Predictions

Prediction of SNOs between GOES-16 and NOAA-20 Satellite Orbit:

Table of predicted SNOs for the next 14.0 days since TLE Epoch: 8/14/2021
Index Date Time (GOES-16) GOES-16 Lat,Lon NOAA-20 Lat,Lon Distance(km) Time Diff (sec)
1 08/14/2021 18:10:59 0.11, -75.23 0.94, -71.43 433.00 80
2 08/16/2021 06:32:48 -0.12, -75.24 0.20, -76.71 167.28 80
3 08/17/2021 06:14:03 -0.12, -75.24 -0.83, -72.18 349.45 80
4 08/18/2021 18:33:20 0.13, -75.25 -0.35, -77.49 254.78 80
5 08/19/2021 18:17:14 0.13, -75.25 0.62, -72.94 262.39 80
6 08/21/2021 06:39:02 -0.14, -75.27 0.51, -78.22 336.70 80
7 08/22/2021 06:19:13 -0.14, -75.28 -0.52, -73.70 180.94 15
8 08/23/2021 18:39:34 0.15, -75.30 -0.66, -79.00 421.81 80
9 08/24/2021 18:23:29 0.15, -75.32 0.31, -74.46 96.63 80
10 08/27/2021 06:26:33 -0.15, -75.37 -0.21, -75.22 18.43 80
